Time,TemperatureF,DewpointF,PressureIn,WindDirection,WindDirectionDegrees,WindSpeedMPH,WindSpeedGustMPH,Humidity,HourlyPrecipIn,Conditions,Clouds,dailyrainin,SoftwareType,DateUTC
2013-03-18 00:00:00,37.8,33.4,30.23,SSW,208,0.0,8.0,84,0.00,,---,0.02,VWS V13.00,2013-03-18 07:00:00,
2013-03-18 00:05:00,37.8,33.7,30.23,SSW,202,0.0,8.0,85,0.00,,---,0.02,VWS V13.00,2013-03-18 07:05:00,
2013-03-18 00:10:00,37.6,33.5,30.23,SW,215,1.0,8.0,85,0.00,,---,0.02,VWS V13.00,2013-03-18 07:10:00,
2013-03-18 00:15:00,37.5,33.4,30.23,SW,217,1.0,8.0,85,0.00,,---,0.02,VWS V13.00,2013-03-18 07:15:00,
2013-03-18 00:20:00,37.3,33.2,30.23,South,181,1.0,8.0,85,0.00,,---,0.02,VWS V13.00,2013-03-18 07:20:00,
2013-03-18 00:25:00,37.3,33.5,30.23,SSW,200,1.0,8.0,86,0.00,,---,0.02,VWS V13.00,2013-03-18 07:25:00,
2013-03-18 00:30:00,37.2,33.4,30.23,South,184,3.0,8.0,86,0.00,,---,0.02,VWS V13.00,2013-03-18 07:30:00,
2013-03-18 00:35:00,37.2,33.7,30.23,SW,215,0.0,8.0,87,0.00,,---,0.02,VWS V13.00,2013-03-18 07:35:00,
2013-03-18 00:40:00,37.0,33.5,30.23,SW,216,0.0,3.0,87,0.00,,---,0.02,VWS V13.00,2013-03-18 07:40:00,
2013-03-18 00:45:00,37.0,33.5,30.23,South,185,2.0,3.0,87,0.00,,---,0.02,VWS V13.00,2013-03-18 07:45:00,
2013-03-18 00:50:00,37.0,33.5,30.23,SW,217,0.0,3.0,87,0.00,,---,0.02,VWS V13.00,2013-03-18 07:50:00,
2013-03-18 00:55:00,37.0,33.5,30.23,South,175,0.0,6.0,87,0.00,,---,0.02,VWS V13.00,2013-03-18 07:55:00,
2013-03-18 01:00:00,37.2,33.7,30.23,SSW,200,0.0,6.0,87,0.00,,---,0.02,VWS V13.00,2013-03-18 08:00:00,
2013-03-18 01:05:00,37.2,33.7,30.23,South,189,1.0,6.0,87,0.00,,---,0.02,VWS V13.00,2013-03-18 08:05:00,
2013-03-18 01:10:00,37.2,33.7,30.23,SSW,193,3.0,4.0,87,0.00,,---,0.00,VWS V13.00,2013-03-18 08:10:00,
2013-03-18 01:15:00,37.3,33.8,30.23,SSW,205,0.0,4.0,87,0.00,,---,0.00,VWS V13.00,2013-03-18 08:15:00,
2013-03-18 01:20:00,37.3,33.8,30.23,SSW,209,0.0,4.0,87,0.00,,---,0.00,VWS V13.00,2013-03-18 08:20:00,
2013-03-18 01:25:00,37.5,34.0,30.23,South,179,0.0,4.0,87,0.00,,---,0.00,VWS V13.00,2013-03-18 08:25:00,
2013-03-18 01:30:00,37.5,33.7,30.23,South,174,2.0,4.0,86,0.00,,---,0.00,VWS V13.00,2013-03-18 08:30:00,
2013-03-18 01:35:00,37.5,33.7,30.23,SSE,151,0.0,5.0,86,0.01,,---,0.01,VWS V13.00,2013-03-18 08:35:00,
2013-03-18 01:40:00,37.6,33.8,30.23,WSW,257,0.0,3.0,86,0.01,,---,0.01,VWS V13.00,2013-03-18 08:40:00,
2013-03-18 01:45:00,37.6,33.8,30.23,SSW,195,1.0,5.0,86,0.01,,---,0.01,VWS V13.00,2013-03-18 08:45:00,
2013-03-18 01:50:00,37.8,34.0,30.23,SSW,202,0.0,6.0,86,0.01,,---,0.01,VWS V13.00,2013-03-18 08:50:00,
2013-03-18 01:55:00,37.8,33.7,30.23,South,186,0.0,6.0,85,0.01,,---,0.01,VWS V13.00,2013-03-18 08:55:00,
2013-03-18 02:00:00,37.8,33.7,30.23,West,274,0.0,6.0,85,0.01,,---,0.01,VWS V13.00,2013-03-18 09:00:00,
2013-03-18 02:05:00,37.8,33.7,30.23,South,171,1.0,7.0,85,0.01,,---,0.01,VWS V13.00,2013-03-18 09:05:00,
2013-03-18 02:10:00,37.9,33.8,30.23,SSW,196,2.0,7.0,85,0.01,,---,0.01,VWS V13.00,2013-03-18 09:10:00,
2013-03-18 02:15:00,37.9,33.5,30.23,SSW,195,0.0,7.0,84,0.01,,---,0.01,VWS V13.00,2013-03-18 09:15:00,
2013-03-18 02:20:00,38.0,33.6,30.23,South,191,0.0,7.0,84,0.01,,---,0.01,VWS V13.00,2013-03-18 09:20:00,
2013-03-18 02:25:00,38.0,33.9,30.23,SSW,192,0.0,7.0,85,0.01,,---,0.01,VWS V13.00,2013-03-18 09:25:00,
2013-03-18 02:30:00,38.0,33.9,30.23,SSE,168,0.0,7.0,85,0.01,,---,0.01,VWS V13.00,2013-03-18 09:30:00,
2013-03-18 02:35:00,38.0,33.9,30.23,SW,234,0.0,7.0,85,0.01,,---,0.01,VWS V13.00,2013-03-18 09:35:00,
2013-03-18 02:40:00,38.0,33.6,30.23,SSW,203,0.0,2.0,84,0.00,,---,0.01,VWS V13.00,2013-03-18 09:40:00,
2013-03-18 02:45:00,38.0,33.6,30.23,SSW,196,0.0,2.0,84,0.00,,---,0.01,VWS V13.00,2013-03-18 09:45:00,
2013-03-18 02:50:00,38.0,33.6,30.23,South,184,0.0,3.0,84,0.00,,---,0.01,VWS V13.00,2013-03-18 09:50:00,
2013-03-18 02:55:00,38.0,33.6,30.22,SSW,198,0.0,3.0,84,0.00,,---,0.01,VWS V13.00,2013-03-18 09:55:00,
2013-03-18 03:00:00,38.2,33.8,30.22,South,184,0.0,3.0,84,0.00,,---,0.01,VWS V13.00,2013-03-18 10:00:00,
2013-03-18 03:05:00,38.2,33.5,30.22,South,189,0.0,5.0,83,0.00,,---,0.01,VWS V13.00,2013-03-18 10:05:00,
2013-03-18 03:10:00,38.2,33.5,30.22,South,179,1.0,3.0,83,0.00,,---,0.01,VWS V13.00,2013-03-18 10:10:00,
2013-03-18 03:15:00,38.2,33.5,30.22,South,175,1.0,3.0,83,0.00,,---,0.01,VWS V13.00,2013-03-18 10:15:00,
2013-03-18 03:20:00,38.3,33.6,30.22,SSW,198,1.0,7.0,83,0.00,,---,0.01,VWS V13.00,2013-03-18 10:20:00,
2013-03-18 03:25:00,38.3,33.3,30.22,South,172,1.0,7.0,82,0.00,,---,0.01,VWS V13.00,2013-03-18 10:25:00,
2013-03-18 03:30:00,38.3,33.3,30.22,WSW,237,2.0,8.0,82,0.00,,---,0.01,VWS V13.00,2013-03-18 10:30:00,
2013-03-18 03:35:00,38.5,33.5,30.22,SSW,195,0.0,8.0,82,0.00,,---,0.01,VWS V13.00,2013-03-18 10:35:00,
2013-03-18 03:40:00,38.5,33.5,30.21,SSW,203,3.0,5.0,82,0.00,,---,0.01,VWS V13.00,2013-03-18 10:40:00,
2013-03-18 03:45:00,38.5,33.2,30.21,SW,234,2.0,7.0,81,0.00,,---,0.01,VWS V13.00,2013-03-18 10:45:00,
2013-03-18 03:50:00,38.5,33.2,30.21,WSW,240,1.0,7.0,81,0.00,,---,0.01,VWS V13.00,2013-03-18 10:50:00,
2013-03-18 03:55:00,38.5,33.2,30.20,WSW,239,2.0,8.0,81,0.00,,---,0.01,VWS V13.00,2013-03-18 10:55:00,
2013-03-18 04:00:00,38.6,33.3,30.20,WSW,257,2.0,8.0,81,0.00,,---,0.01,VWS V13.00,2013-03-18 11:00:00,
2013-03-18 04:05:00,38.6,33.0,30.20,WSW,244,5.0,10.0,80,0.00,,---,0.01,VWS V13.00,2013-03-18 11:05:00,
2013-03-18 04:10:00,38.6,33.0,30.20,South,185,2.0,7.0,80,0.00,,---,0.01,VWS V13.00,2013-03-18 11:10:00,
2013-03-18 04:15:00,38.6,33.0,30.20,South,179,2.0,10.0,80,0.00,,---,0.01,VWS V13.00,2013-03-18 11:15:00,
2013-03-18 04:19:00,38.6,33.0,30.20,South,179,0.0,10.0,80,0.00,,---,0.01,VWS V13.00,2013-03-18 11:19:00,
2013-03-18 04:25:00,38.6,33.0,30.19,SW,232,6.0,10.0,80,0.00,,---,0.01,VWS V13.00,2013-03-18 11:25:00,
2013-03-18 04:30:00,38.6,33.0,30.19,WSW,243,3.0,10.0,80,0.00,,---,0.01,VWS V13.00,2013-03-18 11:30:00,
2013-03-18 04:35:00,38.8,32.9,30.19,SSW,202,6.0,10.0,79,0.00,,---,0.01,VWS V13.00,2013-03-18 11:35:00,
2013-03-18 04:40:00,38.8,33.2,30.20,WSW,237,6.0,10.0,80,0.00,,---,0.01,VWS V13.00,2013-03-18 11:40:00,
2013-03-18 04:45:00,38.8,32.9,30.20,South,182,2.0,10.0,79,0.00,,---,0.01,VWS V13.00,2013-03-18 11:45:00,
2013-03-18 04:50:00,38.9,33.0,30.20,WSW,237,3.0,10.0,79,0.00,,---,0.01,VWS V13.00,2013-03-18 11:50:00,
2013-03-18 04:55:00,38.9,33.0,30.20,WNW,294,2.0,10.0,79,0.00,,---,0.01,VWS V13.00,2013-03-18 11:55:00,
2013-03-18 05:00:00,39.1,33.2,30.20,SW,215,0.0,11.0,79,0.00,,---,0.01,VWS V13.00,2013-03-18 12:00:00,
2013-03-18 05:05:00,39.1,33.2,30.20,South,172,2.0,11.0,79,0.00,,---,0.01,VWS V13.00,2013-03-18 12:05:00,
2013-03-18 05:10:00,39.1,33.2,30.20,SW,219,5.0,8.0,79,0.00,,---,0.01,VWS V13.00,2013-03-18 12:10:00,
2013-03-18 05:15:00,39.1,33.2,30.20,SW,223,6.0,8.0,79,0.00,,---,0.01,VWS V13.00,2013-03-18 12:15:00,
2013-03-18 05:20:00,39.1,33.2,30.20,WSW,247,5.0,10.0,79,0.00,,---,0.01,VWS V13.00,2013-03-18 12:20:00,
2013-03-18 05:25:00,39.1,33.2,30.20,WSW,244,4.0,10.0,79,0.00,,---,0.01,VWS V13.00,2013-03-18 12:25:00,
2013-03-18 05:30:00,39.1,33.2,30.20,South,188,0.0,10.0,79,0.00,,---,0.01,VWS V13.00,2013-03-18 12:30:00,
2013-03-18 05:35:00,39.1,33.5,30.20,SW,215,1.0,10.0,80,0.00,,---,0.01,VWS V13.00,2013-03-18 12:35:00,
2013-03-18 05:40:00,39.1,33.5,30.20,WSW,256,6.0,7.0,80,0.00,,---,0.01,VWS V13.00,2013-03-18 12:40:00,
2013-03-18 05:45:00,38.9,33.3,30.20,SSW,199,4.0,7.0,80,0.00,,---,0.01,VWS V13.00,2013-03-18 12:45:00,
2013-03-18 05:50:00,38.9,33.0,30.20,SW,234,5.0,7.0,79,0.00,,---,0.01,VWS V13.00,2013-03-18 12:50:00,
2013-03-18 05:55:00,38.9,33.0,30.20,SW,216,2.0,8.0,79,0.00,,---,0.01,VWS V13.00,2013-03-18 12:55:00,
2013-03-18 06:00:00,38.9,33.3,30.20,SSW,195,5.0,11.0,80,0.00,,---,0.01,VWS V13.00,2013-03-18 13:00:00,
2013-03-18 06:05:00,38.9,33.0,30.20,West,274,0.0,11.0,79,0.00,,---,0.01,VWS V13.00,2013-03-18 13:05:00,
2013-03-18 06:10:00,38.9,33.0,30.20,SW,229,3.0,6.0,79,0.00,,---,0.01,VWS V13.00,2013-03-18 13:10:00,
2013-03-18 06:15:00,38.9,33.0,30.20,SSW,205,0.0,6.0,79,0.00,,---,0.01,VWS V13.00,2013-03-18 13:15:00,
2013-03-18 06:20:00,38.9,33.0,30.20,SW,223,3.0,7.0,79,0.00,,---,0.01,VWS V13.00,2013-03-18 13:20:00,
2013-03-18 06:25:00,38.9,33.0,30.20,SW,215,0.0,7.0,79,0.00,,---,0.01,VWS V13.00,2013-03-18 13:25:00,
2013-03-18 06:30:00,38.9,33.0,30.20,South,174,2.0,7.0,79,0.00,,---,0.01,VWS V13.00,2013-03-18 13:30:00,
2013-03-18 06:35:00,39.1,33.2,30.20,South,178,0.0,7.0,79,0.00,,---,0.01,VWS V13.00,2013-03-18 13:35:00,
2013-03-18 06:40:00,39.1,33.2,30.20,SW,219,2.0,6.0,79,0.00,,---,0.01,VWS V13.00,2013-03-18 13:40:00,
2013-03-18 06:45:00,39.1,33.2,30.20,SW,217,2.0,8.0,79,0.00,,---,0.01,VWS V13.00,2013-03-18 13:45:00,
2013-03-18 06:50:00,39.1,33.2,30.20,SSE,165,1.0,8.0,79,0.00,,---,0.01,VWS V13.00,2013-03-18 13:50:00,
2013-03-18 06:55:00,39.1,33.2,30.20,SW,217,0.0,8.0,79,0.00,,---,0.01,VWS V13.00,2013-03-18 13:55:00,
2013-03-18 07:00:00,39.1,33.2,30.20,SSW,192,3.0,8.0,79,0.00,,---,0.01,VWS V13.00,2013-03-18 14:00:00,
2013-03-18 07:05:00,39.1,33.2,30.20,SSW,193,2.0,8.0,79,0.00,,---,0.01,VWS V13.00,2013-03-18 14:05:00,
2013-03-18 07:10:00,39.2,33.2,30.20,SE,136,4.0,7.0,79,0.00,,---,0.01,VWS V13.00,2013-03-18 14:10:00,
2013-03-18 07:15:00,39.1,33.8,30.20,SW,234,1.0,10.0,81,0.00,,---,0.01,VWS V13.00,2013-03-18 14:15:00,
2013-03-18 07:20:00,38.9,34.2,30.20,SW,223,2.0,10.0,83,0.00,,---,0.01,VWS V13.00,2013-03-18 14:20:00,
2013-03-18 07:25:00,38.8,34.1,30.20,West,274,0.0,10.0,83,0.00,,---,0.01,VWS V13.00,2013-03-18 14:25:00,
2013-03-18 07:30:00,38.6,34.5,30.20,South,182,0.0,12.0,85,0.00,,---,0.01,VWS V13.00,2013-03-18 14:30:00,
2013-03-18 07:35:00,38.5,34.4,30.20,SSW,193,0.0,12.0,85,0.00,,---,0.01,VWS V13.00,2013-03-18 14:35:00,
2013-03-18 07:40:00,38.3,34.5,30.20,SSW,205,2.0,6.0,86,0.00,,---,0.01,VWS V13.00,2013-03-18 14:40:00,
2013-03-18 07:45:00,38.2,34.4,30.20,SSW,196,0.0,7.0,86,0.00,,---,0.01,VWS V13.00,2013-03-18 14:45:00,
2013-03-18 07:50:00,38.2,34.7,30.20,South,191,0.0,11.0,87,0.00,,---,0.01,VWS V13.00,2013-03-18 14:50:00,
2013-03-18 07:55:00,38.0,34.5,30.20,ESE,120,3.0,11.0,87,0.00,,---,0.01,VWS V13.00,2013-03-18 14:55:00,
2013-03-18 08:00:00,38.0,34.8,30.20,South,169,4.0,11.0,88,0.00,,---,0.01,VWS V13.00,2013-03-18 15:00:00,
2013-03-18 08:05:00,38.2,35.0,30.20,South,189,0.0,11.0,88,0.00,,---,0.01,VWS V13.00,2013-03-18 15:05:00,
2013-03-18 08:10:00,38.2,35.0,30.20,South,191,2.0,5.0,88,0.00,,---,0.01,VWS V13.00,2013-03-18 15:10:00,
2013-03-18 08:15:00,38.2,35.2,30.20,SW,222,6.0,8.0,89,0.00,,---,0.01,VWS V13.00,2013-03-18 15:15:00,
2013-03-18 08:20:00,38.2,35.0,30.20,WSW,237,3.0,8.0,88,0.01,,---,0.02,VWS V13.00,2013-03-18 15:20:00,
2013-03-18 08:25:00,38.3,35.1,30.20,South,189,3.0,8.0,88,0.01,,---,0.02,VWS V13.00,2013-03-18 15:25:00,
2013-03-18 08:30:00,38.3,35.1,30.20,SSW,198,0.0,8.0,88,0.01,,---,0.02,VWS V13.00,2013-03-18 15:30:00,
2013-03-18 08:35:00,38.5,35.3,30.20,SSE,162,0.0,9.0,88,0.01,,---,0.02,VWS V13.00,2013-03-18 15:35:00,
2013-03-18 08:40:00,38.5,35.3,30.20,South,186,3.0,10.0,88,0.01,,---,0.02,VWS V13.00,2013-03-18 15:40:00,
2013-03-18 08:45:00,38.6,35.4,30.20,SW,226,3.0,10.0,88,0.01,,---,0.02,VWS V13.00,2013-03-18 15:45:00,
2013-03-18 08:50:00,38.6,35.4,30.20,SW,223,2.0,11.0,88,0.01,,---,0.02,VWS V13.00,2013-03-18 15:50:00,
2013-03-18 08:55:00,38.6,35.4,30.21,SW,216,0.0,12.0,88,0.01,,---,0.02,VWS V13.00,2013-03-18 15:55:00,
2013-03-18 09:00:00,38.8,35.8,30.21,SSW,203,0.0,12.0,89,0.01,,---,0.02,VWS V13.00,2013-03-18 16:00:00,
2013-03-18 09:05:00,38.8,35.8,30.21,SSW,193,0.0,12.0,89,0.02,,---,0.03,VWS V13.00,2013-03-18 16:05:00,
2013-03-18 09:10:00,38.8,35.8,30.22,SSW,206,3.0,6.0,89,0.02,,---,0.03,VWS V13.00,2013-03-18 16:10:00,
2013-03-18 09:15:00,38.8,35.8,30.22,WSW,253,3.0,6.0,89,0.02,,---,0.03,VWS V13.00,2013-03-18 16:15:00,
2013-03-18 09:20:00,38.8,35.8,30.22,South,176,1.0,6.0,89,0.02,,---,0.03,VWS V13.00,2013-03-18 16:20:00,
2013-03-18 09:25:00,38.9,36.2,30.22,SW,227,3.0,6.0,90,0.02,,---,0.03,VWS V13.00,2013-03-18 16:25:00,
2013-03-18 09:30:00,38.9,36.2,30.22,SSW,193,1.0,6.0,90,0.02,,---,0.03,VWS V13.00,2013-03-18 16:30:00,
2013-03-18 09:35:00,38.9,36.2,30.22,SSW,200,0.0,8.0,90,0.02,,---,0.03,VWS V13.00,2013-03-18 16:35:00,
2013-03-18 09:40:00,39.1,36.4,30.23,SSW,209,0.0,5.0,90,0.01,,---,0.03,VWS V13.00,2013-03-18 16:40:00,
2013-03-18 09:45:00,39.1,36.7,30.23,South,181,5.0,10.0,91,0.01,,---,0.03,VWS V13.00,2013-03-18 16:45:00,
2013-03-18 09:50:00,39.2,36.8,30.23,WSW,254,5.0,10.0,91,0.02,,---,0.04,VWS V13.00,2013-03-18 16:50:00,
2013-03-18 09:55:00,39.2,36.8,30.22,SSE,151,7.0,10.0,91,0.02,,---,0.04,VWS V13.00,2013-03-18 16:55:00,
2013-03-18 09:59:00,39.3,36.9,30.22,SSW,202,3.0,10.0,91,0.02,,---,0.04,VWS V13.00,2013-03-18 16:59:00,
2013-03-18 10:04:00,39.5,37.1,30.22,South,189,1.0,10.0,91,0.02,,---,0.04,VWS V13.00,2013-03-18 17:04:00,
2013-03-18 10:09:00,39.5,37.1,30.21,SSE,160,0.0,7.0,91,0.01,,---,0.04,VWS V13.00,2013-03-18 17:09:00,
2013-03-18 10:14:00,39.9,37.2,30.21,SSW,199,3.0,7.0,90,0.01,,---,0.04,VWS V13.00,2013-03-18 17:14:00,
2013-03-18 10:19:00,40.3,37.3,30.21,SW,234,6.0,11.0,89,0.01,,---,0.04,VWS V13.00,2013-03-18 17:19:00,
2013-03-18 10:24:00,40.9,37.9,30.21,SSW,202,2.0,11.0,89,0.01,,---,0.04,VWS V13.00,2013-03-18 17:24:00,
2013-03-18 10:29:00,41.3,38.0,30.21,SSE,158,1.0,11.0,88,0.01,,---,0.04,VWS V13.00,2013-03-18 17:29:00,
2013-03-18 10:34:00,41.8,38.2,30.21,SSE,157,6.0,11.0,87,0.01,,---,0.04,VWS V13.00,2013-03-18 17:34:00,
2013-03-18 10:39:00,41.9,37.7,30.22,SSW,205,5.0,14.0,85,0.01,,---,0.04,VWS V13.00,2013-03-18 17:39:00,
2013-03-18 10:44:00,42.2,38.0,30.22,SSW,196,8.0,14.0,85,0.01,,---,0.04,VWS V13.00,2013-03-18 17:44:00,
2013-03-18 10:49:00,42.8,38.6,30.22,SSW,203,3.0,14.0,85,0.01,,---,0.04,VWS V13.00,2013-03-18 17:49:00,
2013-03-18 10:54:00,43.1,38.0,30.22,SSW,193,0.0,14.0,82,0.01,,---,0.04,VWS V13.00,2013-03-18 17:54:00,
2013-03-18 10:59:00,43.1,37.7,30.22,SSE,151,2.0,14.0,81,0.01,,---,0.04,VWS V13.00,2013-03-18 17:59:00,
2013-03-18 11:04:00,43.3,37.9,30.22,SSW,200,3.0,14.0,81,0.01,,---,0.04,VWS V13.00,2013-03-18 18:04:00,
2013-03-18 11:09:00,43.3,37.6,30.22,SSE,168,1.0,11.0,80,0.00,,---,0.04,VWS V13.00,2013-03-18 18:09:00,
2013-03-18 11:14:00,43.5,37.4,30.22,SSW,195,1.0,17.0,79,0.00,,---,0.04,VWS V13.00,2013-03-18 18:14:00,
2013-03-18 11:19:00,43.9,37.5,30.22,SSE,162,5.0,17.0,78,0.00,,---,0.04,VWS V13.00,2013-03-18 18:19:00,
2013-03-18 11:24:00,44.1,37.7,30.22,SE,127,3.0,17.0,78,0.00,,---,0.04,VWS V13.00,2013-03-18 18:24:00,
2013-03-18 11:29:00,44.2,37.1,30.22,SSW,210,1.0,17.0,76,0.00,,---,0.04,VWS V13.00,2013-03-18 18:29:00,
2013-03-18 11:34:00,44.2,37.5,30.22,SSW,212,3.0,17.0,77,0.00,,---,0.04,VWS V13.00,2013-03-18 18:34:00,
2013-03-18 11:39:00,44.2,37.1,30.23,SSW,192,6.0,7.0,76,0.00,,---,0.04,VWS V13.00,2013-03-18 18:39:00,
2013-03-18 11:44:00,44.1,36.7,30.23,WNW,288,0.0,7.0,75,0.00,,---,0.04,VWS V13.00,2013-03-18 18:44:00,
2013-03-18 11:49:00,43.9,36.8,30.23,SSW,200,0.0,7.0,76,0.00,,---,0.04,VWS V13.00,2013-03-18 18:49:00,
2013-03-18 11:54:00,44.1,37.0,30.23,South,174,0.0,7.0,76,0.00,,---,0.04,VWS V13.00,2013-03-18 18:54:00,
2013-03-18 11:59:00,44.5,37.1,30.23,West,281,5.0,8.0,75,0.00,,---,0.04,VWS V13.00,2013-03-18 18:59:00,
2013-03-18 12:04:00,45.1,37.7,30.23,SE,127,0.0,8.0,75,0.00,,---,0.04,VWS V13.00,2013-03-18 19:04:00,
2013-03-18 12:09:00,45.4,38.0,30.23,SW,220,0.0,2.0,75,0.00,,---,0.04,VWS V13.00,2013-03-18 19:09:00,
2013-03-18 12:14:00,45.5,37.7,30.23,West,260,0.0,5.0,74,0.00,,---,0.04,VWS V13.00,2013-03-18 19:14:00,
2013-03-18 12:19:00,45.5,37.0,30.23,SE,144,1.0,7.0,72,0.00,,---,0.04,VWS V13.00,2013-03-18 19:19:00,
2013-03-18 12:24:00,45.8,37.3,30.23,SSE,151,0.0,7.0,72,0.00,,---,0.04,VWS V13.00,2013-03-18 19:24:00,
2013-03-18 12:29:00,47.1,37.1,30.23,NNW,343,0.0,7.0,68,0.00,,---,0.04,VWS V13.00,2013-03-18 19:29:00,
2013-03-18 12:34:00,47.1,36.3,30.23,SSW,198,0.0,7.0,66,0.00,,---,0.04,VWS V13.00,2013-03-18 19:34:00,
2013-03-18 12:39:00,47.1,36.0,30.23,SW,223,2.0,10.0,65,0.00,,---,0.04,VWS V13.00,2013-03-18 19:39:00,
2013-03-18 12:44:00,47.3,35.8,30.23,WSW,247,0.0,10.0,64,0.00,,---,0.04,VWS V13.00,2013-03-18 19:44:00,
2013-03-18 12:49:00,48.0,35.6,30.23,SSW,195,5.0,10.0,62,0.00,,---,0.04,VWS V13.00,2013-03-18 19:49:00,
2013-03-18 12:54:00,48.3,35.5,30.24,South,181,6.0,10.0,61,0.00,,---,0.04,VWS V13.00,2013-03-18 19:54:00,
2013-03-18 12:59:00,48.5,36.5,30.24,SW,236,0.0,10.0,63,0.00,,---,0.04,VWS V13.00,2013-03-18 19:59:00,
2013-03-18 13:04:00,49.2,35.5,30.24,WSW,258,0.0,10.0,59,0.00,,---,0.04,VWS V13.00,2013-03-18 20:04:00,
2013-03-18 13:09:00,49.5,36.6,30.23,SSW,203,2.0,2.0,61,0.00,,---,0.04,VWS V13.00,2013-03-18 20:09:00,
2013-03-18 13:14:00,48.8,35.1,30.23,SSW,200,4.0,10.0,59,0.00,,---,0.04,VWS V13.00,2013-03-18 20:14:00,
2013-03-18 13:19:00,48.6,35.8,30.23,SW,227,0.0,10.0,61,0.00,,---,0.04,VWS V13.00,2013-03-18 20:19:00,
2013-03-18 13:24:00,48.3,34.7,30.24,ENE,65,0.0,10.0,59,0.00,,---,0.04,VWS V13.00,2013-03-18 20:24:00,
2013-03-18 13:29:00,48.0,34.8,30.24,South,186,2.0,10.0,60,0.00,,---,0.04,VWS V13.00,2013-03-18 20:29:00,
2013-03-18 13:34:00,48.0,36.4,30.24,ENE,75,0.0,10.0,64,0.00,,---,0.04,VWS V13.00,2013-03-18 20:34:00,
2013-03-18 13:39:00,48.2,35.4,30.24,WNW,284,0.0,2.0,61,0.00,,---,0.04,VWS V13.00,2013-03-18 20:39:00,
2013-03-18 13:44:00,49.6,35.9,30.24,SSE,157,0.0,4.0,59,0.00,,---,0.04,VWS V13.00,2013-03-18 20:44:00,
2013-03-18 13:49:00,49.8,36.1,30.24,NW,309,3.0,4.0,59,0.00,,---,0.04,VWS V13.00,2013-03-18 20:49:00,
2013-03-18 13:54:00,49.4,35.3,30.23,SW,232,0.0,8.0,58,0.00,,---,0.04,VWS V13.00,2013-03-18 20:54:00,
2013-03-18 13:59:00,49.2,35.5,30.23,North,350,0.0,8.0,59,0.00,,---,0.04,VWS V13.00,2013-03-18 20:59:00,
2013-03-18 14:04:00,49.1,36.7,30.23,North,350,0.0,8.0,62,0.00,,---,0.04,VWS V13.00,2013-03-18 21:04:00,
2013-03-18 14:09:00,48.8,34.7,30.23,SW,220,0.0,6.0,58,0.00,,---,0.04,VWS V13.00,2013-03-18 21:09:00,
2013-03-18 14:14:00,48.6,34.9,30.23,SW,232,0.0,6.0,59,0.00,,---,0.04,VWS V13.00,2013-03-18 21:14:00,
2013-03-18 14:19:00,48.3,33.8,30.23,SE,124,2.0,6.0,57,0.00,,---,0.04,VWS V13.00,2013-03-18 21:19:00,
2013-03-18 14:24:00,48.2,35.0,30.23,West,267,0.0,6.0,60,0.00,,---,0.04,VWS V13.00,2013-03-18 21:24:00,
2013-03-18 14:29:00,48.2,35.0,30.23,West,267,0.0,6.0,60,0.00,,---,0.04,VWS V13.00,2013-03-18 21:29:00,
2013-03-18 14:34:00,48.2,34.1,30.23,WNW,294,0.0,6.0,58,0.00,,---,0.04,VWS V13.00,2013-03-18 21:34:00,
2013-03-18 14:39:00,48.3,33.8,30.23,WNW,284,0.0,6.0,57,0.00,,---,0.04,VWS V13.00,2013-03-18 21:39:00,
2013-03-18 14:44:00,48.6,32.7,30.23,WSW,253,0.0,6.0,54,0.00,,---,0.04,VWS V13.00,2013-03-18 21:44:00,
2013-03-18 14:49:00,48.5,33.5,30.23,SW,222,2.0,6.0,56,0.00,,---,0.04,VWS V13.00,2013-03-18 21:49:00,
2013-03-18 14:54:00,49.2,33.3,30.23,SSE,164,0.0,6.0,54,0.00,,---,0.04,VWS V13.00,2013-03-18 21:54:00,
2013-03-18 14:59:00,50.1,33.7,30.23,SW,219,2.0,6.0,53,0.00,,---,0.04,VWS V13.00,2013-03-18 21:59:00,
2013-03-18 15:04:00,50.4,33.5,30.23,SW,219,3.0,6.0,52,0.00,,---,0.04,VWS V13.00,2013-03-18 22:04:00,
2013-03-18 15:09:00,50.8,33.3,30.23,SSE,157,0.0,3.0,51,0.00,,---,0.04,VWS V13.00,2013-03-18 22:09:00,
2013-03-18 15:14:00,51.7,34.2,30.23,SSW,195,0.0,5.0,51,0.00,,---,0.04,VWS V13.00,2013-03-18 22:14:00,
2013-03-18 15:19:00,52.2,33.6,30.23,East,96,0.0,5.0,49,0.00,,---,0.04,VWS V13.00,2013-03-18 22:19:00,
2013-03-18 15:24:00,52.5,33.4,30.22,WNW,288,0.0,5.0,48,0.00,,---,0.04,VWS V13.00,2013-03-18 22:24:00,
2013-03-18 15:29:00,52.0,32.9,30.22,South,179,0.0,5.0,48,0.00,,---,0.04,VWS V13.00,2013-03-18 22:29:00,
2013-03-18 15:34:00,51.9,31.8,30.22,WSW,254,0.0,6.0,46,0.00,,---,0.04,VWS V13.00,2013-03-18 22:34:00,
2013-03-18 15:39:00,51.9,32.8,30.23,NNW,335,0.0,2.0,48,0.00,,---,0.04,VWS V13.00,2013-03-18 22:39:00,
2013-03-18 15:44:00,51.7,33.2,30.23,NNW,335,0.0,2.0,49,0.00,,---,0.04,VWS V13.00,2013-03-18 22:44:00,
2013-03-18 15:49:00,51.4,32.9,30.23,ENE,75,0.0,2.0,49,0.00,,---,0.04,VWS V13.00,2013-03-18 22:49:00,
2013-03-18 15:54:00,51.3,32.8,30.23,ENE,75,0.0,2.0,49,0.00,,---,0.04,VWS V13.00,2013-03-18 22:54:00,
2013-03-18 15:59:00,51.1,33.1,30.23,ENE,75,0.0,2.0,50,0.00,,---,0.04,VWS V13.00,2013-03-18 22:59:00,
2013-03-18 16:04:00,51.1,34.1,30.23,ENE,62,1.0,2.0,52,0.00,,---,0.04,VWS V13.00,2013-03-18 23:04:00,
2013-03-18 16:09:00,51.0,34.0,30.23,North,356,0.0,0.0,52,0.00,,---,0.04,VWS V13.00,2013-03-18 23:09:00,
2013-03-18 16:14:00,50.8,33.3,30.23,North,356,0.0,0.0,51,0.00,,---,0.04,VWS V13.00,2013-03-18 23:14:00,
2013-03-18 16:19:00,50.8,33.3,30.23,North,0,5.0,5.0,51,0.00,,---,0.04,VWS V13.00,2013-03-18 23:19:00,
2013-03-18 16:24:00,50.5,31.0,30.23,SE,134,0.0,5.0,47,0.00,,---,0.04,VWS V13.00,2013-03-18 23:24:00,
2013-03-18 16:29:00,50.5,32.1,30.23,West,274,0.0,5.0,49,0.00,,---,0.04,VWS V13.00,2013-03-18 23:29:00,
2013-03-18 16:34:00,50.4,32.0,30.23,West,274,0.0,5.0,49,0.00,,---,0.04,VWS V13.00,2013-03-18 23:34:00,
2013-03-18 16:39:00,50.4,32.0,30.23,WNW,282,0.0,0.0,49,0.00,,---,0.04,VWS V13.00,2013-03-18 23:39:00,
2013-03-18 16:44:00,50.2,31.8,30.23,North,0,0.0,3.0,49,0.00,,---,0.04,VWS V13.00,2013-03-18 23:44:00,
2013-03-18 16:49:00,50.1,31.7,30.23,North,0,0.0,3.0,49,0.00,,---,0.04,VWS V13.00,2013-03-18 23:49:00,
2013-03-18 16:54:00,49.9,31.5,30.23,North,349,3.0,3.0,49,0.00,,---,0.04,VWS V13.00,2013-03-18 23:54:00,
2013-03-18 16:59:00,49.9,32.5,30.23,SSW,208,2.0,3.0,51,0.00,,---,0.04,VWS V13.00,2013-03-18 23:59:00,
2013-03-18 17:04:00,49.9,31.5,30.23,South,189,0.0,5.0,49,0.00,,---,0.04,VWS V13.00,2013-03-19 00:04:00,
2013-03-18 17:09:00,49.8,30.9,30.23,NE,41,0.0,0.0,48,0.00,,---,0.04,VWS V13.00,2013-03-19 00:09:00,
2013-03-18 17:14:00,49.8,30.4,30.23,East,85,0.0,0.0,47,0.00,,---,0.04,VWS V13.00,2013-03-19 00:14:00,
2013-03-18 17:19:00,49.6,31.2,30.23,SSW,210,0.0,2.0,49,0.00,,---,0.04,VWS V13.00,2013-03-19 00:19:00,
2013-03-18 17:24:00,49.5,30.6,30.23,SSW,200,0.0,2.0,48,0.00,,---,0.04,VWS V13.00,2013-03-19 00:24:00,
2013-03-18 17:29:00,49.5,32.1,30.23,SSW,200,0.0,2.0,51,0.00,,---,0.04,VWS V13.00,2013-03-19 00:29:00,
2013-03-18 17:34:00,49.4,32.0,30.23,WSW,257,0.0,2.0,51,0.00,,---,0.04,VWS V13.00,2013-03-19 00:34:00,
2013-03-18 17:39:00,49.4,32.0,30.23,NNW,346,0.0,2.0,51,0.00,,---,0.04,VWS V13.00,2013-03-19 00:39:00,
2013-03-18 17:44:00,49.2,31.4,30.23,North,0,1.0,3.0,50,0.00,,---,0.04,VWS V13.00,2013-03-19 00:44:00,
2013-03-18 17:49:00,49.2,31.9,30.23,WNW,282,0.0,3.0,51,0.00,,---,0.04,VWS V13.00,2013-03-19 00:49:00,
2013-03-18 17:54:00,49.1,30.8,30.23,North,0,0.0,3.0,49,0.00,,---,0.04,VWS V13.00,2013-03-19 00:54:00,
2013-03-18 17:59:00,49.1,30.8,30.23,North,0,0.0,3.0,49,0.00,,---,0.04,VWS V13.00,2013-03-19 00:59:00,
2013-03-18 18:04:00,49.1,31.8,30.23,SE,141,0.0,3.0,51,0.00,,---,0.04,VWS V13.00,2013-03-19 01:04:00,
2013-03-18 18:09:00,48.9,30.6,30.23,SE,141,0.0,0.0,49,0.00,,---,0.04,VWS V13.00,2013-03-19 01:09:00,
2013-03-18 18:14:00,48.9,31.1,30.23,SE,141,0.0,0.0,50,0.00,,---,0.04,VWS V13.00,2013-03-19 01:14:00,
2013-03-18 18:19:00,48.8,31.5,30.23,SE,141,0.0,0.0,51,0.00,,---,0.04,VWS V13.00,2013-03-19 01:19:00,
2013-03-18 18:24:00,48.6,30.8,30.23,SE,136,0.0,1.0,50,0.00,,---,0.04,VWS V13.00,2013-03-19 01:24:00,
2013-03-18 18:29:00,48.5,30.2,30.23,East,79,0.0,1.0,49,0.00,,---,0.04,VWS V13.00,2013-03-19 01:29:00,
2013-03-18 18:34:00,48.5,30.7,30.23,East,79,0.0,1.0,50,0.00,,---,0.04,VWS V13.00,2013-03-19 01:34:00,
2013-03-18 18:39:00,48.3,30.5,30.23,East,79,0.0,0.0,50,0.00,,---,0.04,VWS V13.00,2013-03-19 01:39:00,
2013-03-18 18:44:00,48.2,30.5,30.23,East,79,0.0,0.0,50,0.00,,---,0.04,VWS V13.00,2013-03-19 01:44:00,
2013-03-18 18:49:00,47.9,31.1,30.23,East,79,0.0,0.0,52,0.00,,---,0.04,VWS V13.00,2013-03-19 01:49:00,
2013-03-18 18:54:00,47.7,31.0,30.23,East,79,0.0,0.0,52,0.00,,---,0.04,VWS V13.00,2013-03-19 01:54:00,
2013-03-18 18:59:00,47.6,31.3,30.23,East,79,0.0,0.0,53,0.00,,---,0.04,VWS V13.00,2013-03-19 01:59:00,
2013-03-18 19:04:00,47.3,31.0,30.23,East,79,0.0,0.0,53,0.00,,---,0.04,VWS V13.00,2013-03-19 02:04:00,
2013-03-18 19:09:00,47.0,32.1,30.23,East,79,0.0,0.0,56,0.00,,---,0.04,VWS V13.00,2013-03-19 02:09:00,
2013-03-18 19:14:00,46.7,33.6,30.23,East,79,0.0,0.0,60,0.00,,---,0.04,VWS V13.00,2013-03-19 02:14:00,
2013-03-18 19:19:00,46.1,33.8,30.23,East,79,0.0,0.0,62,0.00,,---,0.04,VWS V13.00,2013-03-19 02:19:00,
2013-03-18 19:24:00,45.4,33.6,30.23,East,79,0.0,0.0,63,0.00,,---,0.04,VWS V13.00,2013-03-19 02:24:00,
2013-03-18 19:29:00,44.6,33.2,30.23,East,79,0.0,0.0,64,0.00,,---,0.04,VWS V13.00,2013-03-19 02:29:00,
2013-03-18 19:34:00,44.2,32.8,30.23,East,79,0.0,0.0,64,0.00,,---,0.04,VWS V13.00,2013-03-19 02:34:00,
2013-03-18 19:39:00,43.8,33.2,30.23,East,79,0.0,0.0,66,0.00,,---,0.04,VWS V13.00,2013-03-19 02:39:00,
2013-03-18 19:44:00,43.1,33.3,30.23,East,79,0.0,0.0,68,0.00,,---,0.04,VWS V13.00,2013-03-19 02:44:00,
2013-03-18 19:49:00,42.3,33.2,30.23,East,79,0.0,0.0,70,0.00,,---,0.04,VWS V13.00,2013-03-19 02:49:00,
2013-03-18 19:54:00,41.9,33.2,30.24,East,79,1.0,1.0,71,0.00,,---,0.04,VWS V13.00,2013-03-19 02:54:00,
2013-03-18 19:59:00,41.5,33.2,30.24,East,79,0.0,1.0,72,0.00,,---,0.04,VWS V13.00,2013-03-19 02:59:00,
2013-03-18 20:04:00,41.2,33.5,30.24,East,79,0.0,2.0,74,0.00,,---,0.04,VWS V13.00,2013-03-19 03:04:00,
2013-03-18 20:09:00,40.6,33.3,30.24,East,79,0.0,0.0,75,0.00,,---,0.04,VWS V13.00,2013-03-19 03:09:00,
2013-03-18 20:14:00,40.2,33.2,30.24,East,82,0.0,2.0,76,0.00,,---,0.04,VWS V13.00,2013-03-19 03:14:00,
2013-03-18 20:19:00,39.6,33.0,30.24,East,82,0.0,2.0,77,0.00,,---,0.04,VWS V13.00,2013-03-19 03:19:00,
2013-03-18 20:24:00,39.3,33.0,30.25,East,82,0.0,2.0,78,0.00,,---,0.04,VWS V13.00,2013-03-19 03:24:00,
2013-03-18 20:29:00,39.1,32.8,30.25,East,82,0.0,2.0,78,0.00,,---,0.04,VWS V13.00,2013-03-19 03:29:00,
2013-03-18 20:34:00,38.8,32.9,30.25,East,82,0.0,2.0,79,0.00,,---,0.04,VWS V13.00,2013-03-19 03:34:00,
2013-03-18 20:39:00,38.6,32.7,30.25,East,82,0.0,0.0,79,0.00,,---,0.04,VWS V13.00,2013-03-19 03:39:00,
2013-03-18 20:44:00,38.3,32.7,30.25,East,82,0.0,0.0,80,0.00,,---,0.04,VWS V13.00,2013-03-19 03:44:00,
2013-03-18 20:49:00,38.0,32.7,30.25,East,82,0.0,0.0,81,0.00,,---,0.04,VWS V13.00,2013-03-19 03:49:00,
2013-03-18 20:54:00,37.8,32.5,30.25,East,82,0.0,0.0,81,0.00,,---,0.04,VWS V13.00,2013-03-19 03:54:00,
2013-03-18 20:59:00,37.6,32.6,30.25,East,82,0.0,0.0,82,0.00,,---,0.04,VWS V13.00,2013-03-19 03:59:00,
2013-03-18 21:00:00,37.6,32.6,30.25,East,82,0.0,0.0,82,0.00,,---,0.04,VWS V13.00,2013-03-19 04:00:00,
2013-03-18 21:05:00,37.3,32.3,30.25,East,82,0.0,0.0,82,0.00,,---,0.04,VWS V13.00,2013-03-19 04:05:00,
2013-03-18 21:10:00,37.0,32.0,30.25,East,82,0.0,0.0,82,0.00,,---,0.04,VWS V13.00,2013-03-19 04:10:00,
2013-03-18 21:15:00,36.8,32.1,30.25,East,82,0.0,0.0,83,0.00,,---,0.04,VWS V13.00,2013-03-19 04:15:00,
2013-03-18 21:20:00,36.5,31.8,30.25,East,82,0.0,0.0,83,0.00,,---,0.04,VWS V13.00,2013-03-19 04:20:00,
2013-03-18 21:25:00,36.3,31.9,30.26,East,82,0.0,0.0,84,0.00,,---,0.04,VWS V13.00,2013-03-19 04:25:00,
2013-03-18 21:30:00,36.0,31.6,30.26,East,82,0.0,0.0,84,0.00,,---,0.04,VWS V13.00,2013-03-19 04:30:00,
2013-03-18 21:35:00,35.9,31.5,30.26,East,82,0.0,0.0,84,0.00,,---,0.04,VWS V13.00,2013-03-19 04:35:00,
2013-03-18 21:40:00,35.6,31.5,30.26,East,82,0.0,0.0,85,0.00,,---,0.04,VWS V13.00,2013-03-19 04:40:00,
2013-03-18 21:45:00,35.5,31.5,30.26,East,82,0.0,0.0,85,0.00,,---,0.04,VWS V13.00,2013-03-19 04:45:00,
2013-03-18 21:50:00,35.3,31.2,30.26,East,82,0.0,0.0,85,0.00,,---,0.04,VWS V13.00,2013-03-19 04:50:00,
2013-03-18 21:55:00,35.2,31.4,30.26,East,82,0.0,0.0,86,0.00,,---,0.04,VWS V13.00,2013-03-19 04:55:00,
2013-03-18 22:00:00,34.9,31.1,30.26,East,82,0.0,0.0,86,0.00,,---,0.04,VWS V13.00,2013-03-19 05:00:00,
2013-03-18 22:05:00,34.7,31.0,30.26,East,82,0.0,0.0,86,0.00,,---,0.04,VWS V13.00,2013-03-19 05:05:00,
2013-03-18 22:10:00,34.6,30.9,30.26,East,82,0.0,0.0,86,0.00,,---,0.04,VWS V13.00,2013-03-19 05:10:00,
2013-03-18 22:15:00,34.4,30.9,30.26,East,82,0.0,0.0,87,0.00,,---,0.04,VWS V13.00,2013-03-19 05:15:00,
2013-03-18 22:20:00,34.4,30.9,30.26,East,82,0.0,0.0,87,0.00,,---,0.04,VWS V13.00,2013-03-19 05:20:00,
2013-03-18 22:25:00,34.1,30.6,30.26,East,82,0.0,0.0,87,0.00,,---,0.04,VWS V13.00,2013-03-19 05:25:00,
2013-03-18 22:30:00,34.1,30.9,30.26,East,82,0.0,0.0,88,0.00,,---,0.04,VWS V13.00,2013-03-19 05:30:00,
2013-03-18 22:35:00,34.0,30.8,30.26,East,82,0.0,0.0,88,0.00,,---,0.04,VWS V13.00,2013-03-19 05:35:00,
2013-03-18 22:40:00,33.8,30.6,30.26,East,82,0.0,0.0,88,0.00,,---,0.04,VWS V13.00,2013-03-19 05:40:00,
2013-03-18 22:45:00,33.7,30.5,30.26,East,82,0.0,0.0,88,0.00,,---,0.04,VWS V13.00,2013-03-19 05:45:00,
2013-03-18 22:50:00,33.5,30.6,30.26,East,82,0.0,0.0,89,0.00,,---,0.04,VWS V13.00,2013-03-19 05:50:00,
2013-03-18 22:55:00,33.5,30.6,30.26,East,82,0.0,0.0,89,0.00,,---,0.04,VWS V13.00,2013-03-19 05:55:00,
2013-03-18 23:00:00,33.4,30.5,30.26,East,82,0.0,0.0,89,0.00,,---,0.04,VWS V13.00,2013-03-19 06:00:00,
2013-03-18 23:05:00,33.4,30.5,30.26,East,82,0.0,0.0,89,0.00,,---,0.04,VWS V13.00,2013-03-19 06:05:00,
2013-03-18 23:10:00,33.2,30.3,30.26,East,82,0.0,0.0,89,0.00,,---,0.04,VWS V13.00,2013-03-19 06:10:00,
2013-03-18 23:15:00,33.2,30.3,30.26,East,82,0.0,0.0,89,0.00,,---,0.04,VWS V13.00,2013-03-19 06:15:00,
2013-03-18 23:20:00,33.1,30.2,30.26,East,82,0.0,0.0,89,0.00,,---,0.04,VWS V13.00,2013-03-19 06:20:00,
2013-03-18 23:25:00,33.1,30.5,30.25,East,82,0.0,0.0,90,0.00,,---,0.04,VWS V13.00,2013-03-19 06:25:00,
2013-03-18 23:30:00,32.9,30.3,30.25,East,82,0.0,0.0,90,0.00,,---,0.04,VWS V13.00,2013-03-19 06:30:00,
2013-03-18 23:35:00,32.9,30.3,30.25,East,82,0.0,0.0,90,0.00,,---,0.04,VWS V13.00,2013-03-19 06:35:00,
2013-03-18 23:40:00,32.8,30.2,30.25,East,82,0.0,0.0,90,0.00,,---,0.04,VWS V13.00,2013-03-19 06:40:00,
2013-03-18 23:45:00,32.7,30.1,30.25,East,82,0.0,0.0,90,0.00,,---,0.04,VWS V13.00,2013-03-19 06:45:00,
2013-03-18 23:50:00,32.7,30.1,30.25,East,82,0.0,0.0,90,0.00,,---,0.04,VWS V13.00,2013-03-19 06:50:00,
2013-03-18 23:55:00,32.7,30.1,30.25,East,82,0.0,0.0,90,0.00,,---,0.04,VWS V13.00,2013-03-19 06:55:00,